Total_Precipitation_Accumulation
1.36 1.26 1.23 1.40 1.41 1.55 1.58 1.66 1.70 1.54 1.37 1.25 1.25 1.23 1.29 1.29 1.22 1.16 1.44 1.68 1.96 2.49 2.76 2.70 2.59 2.45 2.45 2.46 2.36 2.32 2.23 2.12 2.33 2.72 3.30 3.56 3.28 2.76 2.44 2.15 1.92 1.69 1.71
1.22 1.26 1.17 1.24 1.35 1.55 1.79 1.88 1.72 1.60 1.49 1.43 1.43 1.38 1.37 1.34 1.31 1.21 1.33 1.45 1.41 1.67 2.17 2.74 2.99 2.89 2.79 2.72 2.53 2.51 2.39 2.23 2.29 2.46 2.52 2.65 2.72 2.45 2.16 2.10 1.93 1.71 1.84
1.04 1.17 1.23 1.22 1.28 1.55 1.83 2.03 1.91 1.76 1.57 1.54 1.53 1.51 1.43 1.42 1.35 1.31 1.41 1.55 1.41 1.39 1.73 2.35 2.96 3.17 3.03 2.90 2.69 2.60 2.37 2.14 2.06 2.14 2.23 2.20 2.33 2.33 2.15 2.05 1.92 1.81 1.82
1.05 1.18 1.28 1.25 1.28 1.53 1.80 2.03 2.10 2.08 1.96 1.86 1.74 1.63 1.56 1.67 1.53 1.44 1.52 1.66 1.75 1.59 1.61 1.91 2.37 2.83 3.04 3.04 2.74 2.43 2.16 1.98 1.93 1.90 1.99 1.85 1.98 2.14 2.08 1.99 2.01 2.08 2.03
1.10 1.22 1.45 1.50 1.51 1.69 1.77 1.80 1.96 2.01 2.07 2.04 1.80 1.73 1.65 1.76 1.84 1.75 1.83 1.94 1.99 1.91 1.78 1.68 1.83 2.02 2.54 2.91 2.88 2.57 2.31 2.05 1.92 1.84 1.93 1.78 1.76 1.93 1.89 1.87 1.99 2.14 2.14
1.33 1.30 1.48 1.54 1.61 1.85 1.88 1.94 2.17 2.16 2.08 2.15 1.93 1.80 1.75 1.75 1.78 1.99 2.14 2.16 2.14 1.95 1.90 1.75 1.83 1.76 2.08 2.51 2.66 2.59 2.42 2.35 2.28 2.12 2.14 2.01 1.81 1.83 1.86 1.82 1.93 2.02 2.12
1.45 1.49 1.54 1.60 1.65 1.75 1.81 1.94 2.30 2.34 2.18 2.05 2.23 2.22 2.12 1.91 1.83 1.91 2.04 2.25 2.31 2.09 2.01 2.00 1.91 1.82 1.72 1.88 2.07 2.33 2.42 2.62 2.72 2.51 2.34 2.14 1.86 1.87 1.97 1.86 1.96 2.00 1.99
1.40 1.36 1.57 1.71 1.68 1.82 1.88 2.04 2.34 2.58 2.34 2.15 2.49 2.96 2.72 2.43 2.09 1.85 1.87 1.92 2.13 2.10 1.95 1.83 1.76 1.75 1.71 1.69 1.55 1.80 2.14 2.59 2.99 2.76 2.37 2.20 1.98 1.89 1.96 1.83 1.83 1.83 1.81
1.64 1.61 1.71 1.87 1.82 1.88 1.98 2.02 2.12 2.61 2.78 2.53 2.45 3.01 2.89 2.68 2.64 2.09 1.68 1.57 1.82 1.98 1.98 1.85 1.80 1.87 1.86 1.82 1.58 1.43 1.66 2.02 2.68 2.73 2.45 2.39 2.27 2.06 1.92 1.81 1.74 1.77 1.84
1.86 1.74 1.78 1.89 1.92 1.99 1.97 1.80 1.96 2.44 2.95 3.01 2.76 2.52 2.35 2.30 2.50 2.40 1.84 1.52 1.57 1.72 1.90 1.80 1.79 1.89 1.94 2.00 1.90 1.56 1.36 1.50 2.10 2.70 2.83 2.74 2.60 2.34 2.15 1.99 1.87 1.86 1.84
1.90 1.74 1.70 1.84 1.94 2.01 2.00 2.03 2.19 2.49 2.79 3.06 3.03 2.76 2.45 2.22 1.84 2.03 2.04 1.82 1.56 1.45 1.51 1.63 1.76 1.83 1.87 1.85 1.91 1.74 1.37 1.20 1.49 2.14 2.71 2.86 2.76 2.65 2.54 2.45 2.39 2.33 2.18
1.77 1.69 1.67 1.69 1.70 1.80 1.89 2.05 2.28 2.42 2.61 2.83 2.90 2.61 2.44 2.33 2.13 1.96 1.80 1.87 1.83 1.52 1.37 1.35 1.45 1.62 1.68 1.73 1.60 1.67 1.41 1.15 1.12 1.32 1.70 2.22 2.47 2.64 2.72 2.77 2.69 2.53 2.50
1.55 1.54 1.54 1.53 1.46 1.48 1.61 1.79 2.04 2.10 2.22 2.42 2.52 2.40 2.27 2.11 2.06 2.11 2.05 1.94 1.78 1.49 1.36 1.19 1.24 1.37 1.38 1.52 1.62 1.62 1.37 1.23 1.07 1.02 1.08 1.27 1.62 2.02 2.40 2.73 2.84 2.79 2.76
1.33 1.26 1.27 1.32 1.32 1.34 1.40 1.56 1.71 1.73 1.80 1.99 2.04 2.10 2.02 1.95 1.98 1.98 2.00 2.15 2.00 1.74 1.38 1.06 1.07 1.20 1.16 1.23 1.49 1.54 1.19 1.14 1.03 0.97 0.94 0.96 1.04 1.29 1.71 2.05 2.36 2.58 2.66
1.10 1.06 1.10 1.22 1.29 1.28 1.25 1.39 1.53 1.51 1.59 1.75 1.87 2.01 1.93 1.88 1.87 1.91 1.98 2.07 2.12 1.98 1.67 1.22 1.04 0.97 0.99 1.08 1.38 1.25 1.13 1.15 1.04 0.97 0.88 0.83 0.82 0.82 0.98 1.22 1.51 1.78 1.92
1.01 1.03 1.04 1.04 1.07 1.09 1.15 1.33 1.50 1.57 1.54 1.61 1.69 1.79 1.92 1.93 1.93 1.93 1.99 2.02 2.00 1.98 1.84 1.41 1.13 0.95 1.00 0.97 1.20 1.00 1.10 1.29 1.07 0.90 0.82 0.79 0.78 0.77 0.77 0.88 0.99 1.09 1.16
0.80 0.81 0.81 0.84 0.97 0.99 1.00 1.16 1.27 1.29 1.40 1.49 1.47 1.50 1.67 1.79 1.91 1.94 1.94 1.94 1.99 1.95 1.81 1.55 1.22 1.04 1.12 1.13 1.19 1.04 1.02 1.07 0.99 0.95 0.86 0.79 0.74 0.76 0.73 0.74 0.76 0.76 0.80
0.56 0.63 0.69 0.68 0.87 1.04 1.07 1.10 1.10 1.09 1.22 1.31 1.34 1.42 1.46 1.47 1.59 1.73 1.82 1.80 1.88 1.92 1.89 1.77 1.47 1.24 1.22 1.28 1.43 1.42 1.30 1.20 1.16 1.25 1.19 1.01 0.87 0.83 0.82 0.77 0.72 0.67 0.64
0.50 0.57 0.66 0.65 0.71 0.86 0.98 0.99 0.97 0.98 1.04 1.12 1.16 1.23 1.26 1.34 1.48 1.48 1.54 1.62 1.69 1.75 1.87 1.82 1.73 1.60 1.43 1.36 1.41 1.38 1.43 1.56 1.49 1.47 1.50 1.32 1.10 0.97 0.91 0.86 0.78 0.71 0.66
0.53 0.55 0.53 0.57 0.62 0.73 0.84 0.84 0.85 0.87 0.90 0.91 1.03 1.11 1.16 1.21 1.31 1.36 1.36 1.49 1.62 1.71 1.75 1.73 1.68 1.61 1.55 1.50 1.48 1.45 1.50 1.62 1.70 1.59 1.54 1.45 1.36 1.24 1.10 1.00 0.87 0.79 0.74
0.38 0.42 0.39 0.41 0.46 0.55 0.61 0.62 0.69 0.77 0.83 0.87 0.96 0.99 1.02 0.99 1.02 1.08 1.07 1.26 1.43 1.61 1.68 1.71 1.63 1.51 1.46 1.46 1.42 1.42 1.50 1.67 1.71 1.75 1.73 1.59 1.44 1.27 1.17 1.09 0.97 0.89 0.84
0.23 0.29 0.31 0.34 0.37 0.40 0.50 0.51 0.54 0.64 0.73 0.79 0.86 0.90 0.98 0.99 0.93 0.88 0.86 0.93 1.06 1.20 1.40 1.53 1.56 1.49 1.41 1.39 1.47 1.55 1.55 1.64 1.74 1.67 1.59 1.65 1.57 1.47 1.30 1.12 1.12 1.09 0.98
0.22 0.23 0.26 0.32 0.32 0.30 0.36 0.36 0.49 0.66 0.68 0.66 0.66 0.80 0.93 0.98 1.01 1.02 0.91 0.89 0.88 0.90 1.01 1.20 1.35 1.36 1.35 1.37 1.46 1.54 1.59 1.62 1.51 1.55 1.52 1.62 1.60 1.48 1.31 1.26 1.30 1.16 1.07
0.22 0.27 0.29 0.34 0.31 0.24 0.28 0.33 0.42 0.55 0.60 0.57 0.58 0.70 0.85 0.97 1.02 1.05 1.01 1.06 1.01 0.88 0.85 0.92 1.11 1.21 1.24 1.39 1.56 1.70 1.78 1.75 1.65 1.59 1.51 1.55 1.49 1.36 1.26 1.23 1.32 1.19 1.08
0.22 0.27 0.33 0.34 0.29 0.23 0.25 0.32 0.42 0.54 0.61 0.58 0.56 0.63 0.78 0.88 1.01 1.06 1.01 1.10 1.09 0.90 0.82 0.91 0.95 1.03 1.16 1.32 1.51 1.70 1.78 1.75 1.71 1.64 1.45 1.31 1.24 1.29 1.31 1.25 1.23 1.21 1.09
0.23 0.24 0.27 0.28 0.26 0.27 0.29 0.30 0.36 0.42 0.52 0.59 0.57 0.61 0.82 0.90 0.96 0.92 0.92 1.12 1.21 1.06 0.81 0.81 0.87 1.01 1.12 1.28 1.51 1.66 1.91 1.90 1.69 1.62 1.46 1.30 1.28 1.36 1.50 1.39 1.21 1.11 1.04